Time,TemperatureF,DewpointF,PressureIn,WindDirection,WindDirectionDegrees,WindSpeedMPH,WindSpeedGustMPH,Humidity,HourlyPrecipIn,Conditions,Clouds,dailyrainin,SoftwareType,DateUTC
2013-03-07 00:00:00,32.5,27.3,30.01,ENE,76,6.0,8.0,81,0.00,,,0.01,Wunderground v.1.15,2013-03-07 05:00:00,
2013-03-07 00:05:00,32.5,27.3,30.01,ESE,112,5.0,8.0,81,0.00,,,0.00,Wunderground v.1.15,2013-03-07 05:05:00,
2013-03-07 00:10:00,32.5,27.0,30.01,East,92,6.0,9.0,80,0.00,,,0.00,Wunderground v.1.15,2013-03-07 05:10:00,
2013-03-07 00:15:00,32.5,27.0,30.01,South,171,6.0,9.0,80,0.00,,,0.00,Wunderground v.1.15,2013-03-07 05:15:00,
2013-03-07 00:20:00,32.5,27.0,30.01,ENE,69,5.0,5.0,80,0.00,,,0.00,Wunderground v.1.15,2013-03-07 05:20:00,
2013-03-07 00:30:00,32.5,27.0,30.01,NE,56,5.0,5.0,80,0.00,,,0.00,Wunderground v.1.15,2013-03-07 05:30:00,
2013-03-07 00:35:00,32.5,27.0,30.01,East,82,5.0,8.0,80,0.00,,,0.00,Wunderground v.1.15,2013-03-07 05:35:00,
2013-03-07 00:45:00,32.5,27.0,30.01,East,87,6.0,10.0,80,0.00,,,0.00,Wunderground v.1.15,2013-03-07 05:45:00,
2013-03-07 00:50:00,32.5,26.7,30.01,NE,48,6.0,8.0,79,0.00,,,0.00,Wunderground v.1.15,2013-03-07 05:50:00,
2013-03-07 00:55:00,32.5,26.7,30.02,ESE,107,7.0,14.0,79,0.00,,,0.00,Wunderground v.1.15,2013-03-07 05:55:00,
2013-03-07 01:00:00,32.5,26.7,30.02,SE,125,8.0,9.0,79,0.00,,,0.00,Wunderground v.1.15,2013-03-07 06:00:00,
2013-03-07 01:10:00,32.5,26.7,30.02,NE,55,8.0,8.0,79,0.00,,,0.00,Wunderground v.1.15,2013-03-07 06:10:00,
2013-03-07 01:15:00,32.4,26.9,30.02,South,173,8.0,8.0,80,0.00,,,0.00,Wunderground v.1.15,2013-03-07 06:15:00,
2013-03-07 01:20:00,32.4,26.9,30.02,East,90,6.0,18.0,80,0.00,,,0.00,Wunderground v.1.15,2013-03-07 06:20:00,
2013-03-07 01:25:00,32.3,26.8,30.02,NE,48,6.0,18.0,80,0.00,,,0.00,Wunderground v.1.15,2013-03-07 06:25:00,
2013-03-07 01:35:00,32.3,26.8,30.02,East,94,7.0,8.0,80,0.00,,,0.00,Wunderground v.1.15,2013-03-07 06:35:00,
2013-03-07 01:40:00,32.2,26.7,30.02,NE,44,6.0,11.0,80,0.00,,,0.00,Wunderground v.1.15,2013-03-07 06:40:00,
2013-03-07 01:45:00,32.2,26.7,30.02,NNE,20,7.0,11.0,80,0.00,,,0.00,Wunderground v.1.15,2013-03-07 06:45:00,
2013-03-07 01:50:00,32.2,26.4,30.01,ENE,61,8.0,9.0,79,0.00,,,0.00,Wunderground v.1.15,2013-03-07 06:50:00,
2013-03-07 01:55:00,32.2,26.4,30.01,East,97,6.0,9.0,79,0.00,,,0.00,Wunderground v.1.15,2013-03-07 06:55:00,
2013-03-07 02:00:00,32.1,26.6,30.01,East,101,4.0,4.0,80,0.00,,,0.00,Wunderground v.1.15,2013-03-07 07:00:00,
2013-03-07 02:05:00,32.1,26.6,30.01,ENE,70,5.0,5.0,80,0.00,,,0.00,Wunderground v.1.15,2013-03-07 07:05:00,
2013-03-07 02:10:00,32.0,26.5,30.01,NE,38,7.0,8.0,80,0.00,,,0.00,Wunderground v.1.15,2013-03-07 07:10:00,
2013-03-07 02:15:00,31.9,26.4,30.01,East,80,7.0,8.0,80,0.00,,,0.00,Wunderground v.1.15,2013-03-07 07:15:00,
2013-03-07 02:25:00,31.7,26.5,30.01,ENE,62,4.0,8.0,81,0.00,,,0.00,Wunderground v.1.15,2013-03-07 07:25:00,
2013-03-07 02:30:00,31.7,26.5,30.01,ESE,110,4.0,4.0,81,0.00,,,0.00,Wunderground v.1.15,2013-03-07 07:30:00,
2013-03-07 02:35:00,31.6,26.4,30.01,NNE,25,5.0,5.0,81,0.00,,,0.00,Wunderground v.1.15,2013-03-07 07:35:00,
2013-03-07 02:40:00,31.6,26.4,30.00,NE,54,7.0,7.0,81,0.00,,,0.00,Wunderground v.1.15,2013-03-07 07:40:00,
2013-03-07 02:45:00,31.5,26.3,30.00,NE,51,7.0,8.0,81,0.00,,,0.00,Wunderground v.1.15,2013-03-07 07:45:00,
2013-03-07 02:50:00,31.5,26.3,30.00,ENE,63,7.0,8.0,81,0.00,,,0.00,Wunderground v.1.15,2013-03-07 07:50:00,
2013-03-07 02:55:00,31.5,26.3,30.00,NE,51,7.0,8.0,81,0.00,,,0.00,Wunderground v.1.15,2013-03-07 07:55:00,
2013-03-07 03:05:00,31.5,26.3,30.00,NE,36,6.0,10.0,81,0.00,,,0.00,Wunderground v.1.15,2013-03-07 08:05:00,
2013-03-07 03:10:00,31.5,26.3,30.00,SE,126,7.0,8.0,81,0.00,,,0.00,Wunderground v.1.15,2013-03-07 08:10:00,
2013-03-07 03:15:00,31.4,26.2,29.99,ENE,65,8.0,8.0,81,0.00,,,0.00,Wunderground v.1.15,2013-03-07 08:15:00,
2013-03-07 03:20:00,31.4,26.2,29.99,North,5,6.0,8.0,81,0.00,,,0.00,Wunderground v.1.15,2013-03-07 08:20:00,
2013-03-07 03:25:00,31.3,26.1,29.99,ENE,57,7.0,11.0,81,0.00,,,0.00,Wunderground v.1.15,2013-03-07 08:25:00,
2013-03-07 03:30:00,31.3,26.1,29.99,NE,56,7.0,8.0,81,0.00,,,0.00,Wunderground v.1.15,2013-03-07 08:30:00,
2013-03-07 03:40:00,31.2,26.0,30.00,ESE,119,8.0,8.0,81,0.00,,,0.00,Wunderground v.1.15,2013-03-07 08:40:00,
2013-03-07 03:45:00,31.2,26.0,30.00,ENE,71,8.0,8.0,81,0.00,,,0.00,Wunderground v.1.15,2013-03-07 08:45:00,
2013-03-07 03:55:00,31.1,26.2,30.00,ESE,107,6.0,9.0,82,0.00,,,0.00,Wunderground v.1.15,2013-03-07 08:55:00,
2013-03-07 04:00:00,31.1,26.2,30.00,NE,53,6.0,6.0,82,0.00,,,0.00,Wunderground v.1.15,2013-03-07 09:00:00,
2013-03-07 04:05:00,31.1,26.2,30.00,NNE,13,6.0,8.0,82,0.00,,,0.00,Wunderground v.1.15,2013-03-07 09:05:00,
2013-03-07 04:10:00,31.0,26.1,30.00,East,92,6.0,6.0,82,0.00,,,0.00,Wunderground v.1.15,2013-03-07 09:10:00,
2013-03-07 04:20:00,31.0,26.1,30.01,ENE,59,6.0,8.0,82,0.00,,,0.00,Wunderground v.1.15,2013-03-07 09:20:00,
2013-03-07 04:25:00,30.9,26.1,30.02,ENE,59,7.0,9.0,82,0.00,,,0.00,Wunderground v.1.15,2013-03-07 09:25:00,
2013-03-07 04:30:00,31.0,26.1,30.02,NE,39,7.0,8.0,82,0.00,,,0.00,Wunderground v.1.15,2013-03-07 09:30:00,
2013-03-07 04:40:00,30.9,26.1,30.03,ENE,74,6.0,6.0,82,0.00,,,0.00,Wunderground v.1.15,2013-03-07 09:40:00,
2013-03-07 04:45:00,31.0,26.1,30.03,East,89,6.0,8.0,82,0.00,,,0.00,Wunderground v.1.15,2013-03-07 09:45:00,
2013-03-07 04:50:00,30.9,26.1,30.03,NE,44,6.0,8.0,82,0.00,,,0.00,Wunderground v.1.15,2013-03-07 09:50:00,
2013-03-07 04:55:00,30.9,26.1,30.03,East,91,5.0,8.0,82,0.00,,,0.00,Wunderground v.1.15,2013-03-07 09:55:00,
2013-03-07 05:00:00,30.9,26.1,30.03,ENE,68,6.0,11.0,82,0.00,,,0.00,Wunderground v.1.15,2013-03-07 10:00:00,
2013-03-07 05:05:00,30.8,25.7,30.03,ENE,72,7.0,11.0,81,0.00,,,0.00,Wunderground v.1.15,2013-03-07 10:05:00,
2013-03-07 05:10:00,30.8,26.0,30.04,ENE,74,6.0,8.0,82,0.00,,,0.00,Wunderground v.1.15,2013-03-07 10:10:00,
2013-03-07 05:15:00,30.8,26.0,30.04,ENE,76,6.0,10.0,82,0.00,,,0.00,Wunderground v.1.15,2013-03-07 10:15:00,
2013-03-07 05:25:00,30.7,25.9,30.03,ENE,66,6.0,10.0,82,0.00,,,0.00,Wunderground v.1.15,2013-03-07 10:25:00,
2013-03-07 05:30:00,30.7,25.9,30.03,NNE,24,6.0,6.0,82,0.00,,,0.00,Wunderground v.1.15,2013-03-07 10:30:00,
2013-03-07 05:35:00,30.7,25.9,30.03,East,94,6.0,8.0,82,0.00,,,0.00,Wunderground v.1.15,2013-03-07 10:35:00,
2013-03-07 05:40:00,30.6,25.8,30.03,East,83,6.0,11.0,82,0.00,,,0.00,Wunderground v.1.15,2013-03-07 10:40:00,
2013-03-07 05:45:00,30.6,25.8,30.03,ENE,61,5.0,12.0,82,0.00,,,0.00,Wunderground v.1.15,2013-03-07 10:45:00,
2013-03-07 05:50:00,30.6,25.8,30.04,East,88,5.0,10.0,82,0.00,,,0.00,Wunderground v.1.15,2013-03-07 10:50:00,
2013-03-07 05:55:00,30.6,25.8,30.04,ENE,62,7.0,10.0,82,0.00,,,0.00,Wunderground v.1.15,2013-03-07 10:55:00,
2013-03-07 06:05:00,30.6,25.8,30.04,NNW,342,6.0,8.0,82,0.00,,,0.00,Wunderground v.1.15,2013-03-07 11:05:00,
2013-03-07 06:10:00,30.5,25.7,30.04,ENE,59,5.0,8.0,82,0.00,,,0.00,Wunderground v.1.15,2013-03-07 11:10:00,
2013-03-07 06:15:00,30.4,25.9,30.04,East,97,6.0,8.0,83,0.00,,,0.00,Wunderground v.1.15,2013-03-07 11:15:00,
2013-03-07 06:20:00,30.3,25.8,30.04,ENE,60,6.0,6.0,83,0.00,,,0.00,Wunderground v.1.15,2013-03-07 11:20:00,
2013-03-07 06:25:00,30.2,25.9,30.04,NE,43,6.0,8.0,84,0.00,,,0.00,Wunderground v.1.15,2013-03-07 11:25:00,
2013-03-07 06:30:00,30.1,25.8,30.04,ENE,69,6.0,6.0,84,0.00,,,0.00,Wunderground v.1.15,2013-03-07 11:30:00,
2013-03-07 06:40:00,30.0,26.0,30.04,NNE,29,5.0,5.0,85,0.00,,,0.00,Wunderground v.1.15,2013-03-07 11:40:00,
2013-03-07 06:45:00,29.9,25.9,30.04,East,88,5.0,9.0,85,0.00,,,0.00,Wunderground v.1.15,2013-03-07 11:45:00,
2013-03-07 06:50:00,29.9,25.9,30.04,NE,49,5.0,8.0,85,0.00,,,0.00,Wunderground v.1.15,2013-03-07 11:50:00,
2013-03-07 06:55:00,29.8,26.1,30.05,ENE,60,6.0,8.0,86,0.00,,,0.00,Wunderground v.1.15,2013-03-07 11:55:00,
2013-03-07 07:00:00,29.7,26.3,30.05,ENE,69,6.0,8.0,87,0.00,,,0.00,Wunderground v.1.15,2013-03-07 12:00:00,
2013-03-07 07:05:00,29.6,26.5,30.05,NNE,28,5.0,8.0,88,0.00,,,0.00,Wunderground v.1.15,2013-03-07 12:05:00,
2013-03-07 07:10:00,29.4,26.6,30.05,ENE,74,5.0,14.0,89,0.00,,,0.00,Wunderground v.1.15,2013-03-07 12:10:00,
2013-03-07 07:20:00,29.2,26.6,30.06,ENE,57,6.0,8.0,90,0.00,,,0.00,Wunderground v.1.15,2013-03-07 12:20:00,
2013-03-07 07:25:00,29.2,26.9,30.06,North,5,6.0,8.0,91,0.00,,,0.00,Wunderground v.1.15,2013-03-07 12:25:00,
2013-03-07 07:30:00,29.1,26.8,30.06,ENE,78,6.0,6.0,91,0.00,,,0.00,Wunderground v.1.15,2013-03-07 12:30:00,
2013-03-07 07:35:00,29.2,26.9,30.06,ENE,71,7.0,7.0,91,0.00,,,0.00,Wunderground v.1.15,2013-03-07 12:35:00,
2013-03-07 07:40:00,29.1,26.8,30.06,NE,51,6.0,6.0,91,0.00,,,0.00,Wunderground v.1.15,2013-03-07 12:40:00,
2013-03-07 07:45:00,29.2,26.9,30.06,ENE,78,5.0,8.0,91,0.00,,,0.00,Wunderground v.1.15,2013-03-07 12:45:00,
2013-03-07 07:55:00,29.2,26.9,30.06,North,5,5.0,8.0,91,0.00,,,0.00,Wunderground v.1.15,2013-03-07 12:55:00,
2013-03-07 08:00:00,29.2,26.9,30.06,NNE,19,6.0,8.0,91,0.00,,,0.00,Wunderground v.1.15,2013-03-07 13:00:00,
2013-03-07 08:05:00,29.3,27.0,30.06,NNE,16,6.0,8.0,91,0.00,,,0.00,Wunderground v.1.15,2013-03-07 13:05:00,
2013-03-07 08:10:00,29.4,27.1,30.06,NE,38,5.0,5.0,91,0.00,,,0.00,Wunderground v.1.15,2013-03-07 13:10:00,
2013-03-07 08:15:00,29.4,27.1,30.06,NE,54,4.0,6.0,91,0.00,,,0.00,Wunderground v.1.15,2013-03-07 13:15:00,
2013-03-07 08:20:00,29.5,27.2,30.06,ENE,65,6.0,8.0,91,0.00,,,0.00,Wunderground v.1.15,2013-03-07 13:20:00,
2013-03-07 08:25:00,29.5,27.2,30.06,North,5,7.0,8.0,91,0.00,,,0.00,Wunderground v.1.15,2013-03-07 13:25:00,
2013-03-07 08:30:00,29.7,27.4,30.05,NNE,18,6.0,6.0,91,0.00,,,0.00,Wunderground v.1.15,2013-03-07 13:30:00,
2013-03-07 08:40:00,30.0,27.4,30.06,ENE,61,5.0,8.0,90,0.00,,,0.00,Wunderground v.1.15,2013-03-07 13:40:00,
2013-03-07 08:45:00,30.1,27.5,30.06,East,82,7.0,8.0,90,0.00,,,0.00,Wunderground v.1.15,2013-03-07 13:45:00,
2013-03-07 08:50:00,30.3,27.4,30.06,East,87,6.0,8.0,89,0.00,,,0.00,Wunderground v.1.15,2013-03-07 13:50:00,
2013-03-07 08:55:00,30.5,27.4,30.06,ENE,75,5.0,8.0,88,0.00,,,0.00,Wunderground v.1.15,2013-03-07 13:55:00,
2013-03-07 09:00:00,30.6,27.5,30.05,NE,51,5.0,8.0,88,0.00,,,0.00,Wunderground v.1.15,2013-03-07 14:00:00,
2013-03-07 09:05:00,30.7,27.6,30.05,ESE,104,5.0,8.0,88,0.00,,,0.00,Wunderground v.1.15,2013-03-07 14:05:00,
2013-03-07 09:15:00,30.7,27.3,30.05,NNE,31,6.0,10.0,87,0.00,,,0.00,Wunderground v.1.15,2013-03-07 14:15:00,
2013-03-07 09:20:00,30.7,27.3,30.05,NE,42,6.0,8.0,87,0.00,,,0.00,Wunderground v.1.15,2013-03-07 14:20:00,
2013-03-07 09:25:00,30.7,27.3,30.05,NE,51,6.0,12.0,87,0.00,,,0.00,Wunderground v.1.15,2013-03-07 14:25:00,
2013-03-07 09:30:00,30.7,27.6,30.05,NE,34,6.0,6.0,88,0.00,,,0.00,Wunderground v.1.15,2013-03-07 14:30:00,
2013-03-07 09:35:00,30.7,27.6,30.05,East,81,6.0,7.0,88,0.00,,,0.00,Wunderground v.1.15,2013-03-07 14:35:00,
2013-03-07 09:40:00,30.7,27.6,30.05,ENE,76,5.0,8.0,88,0.00,,,0.00,Wunderground v.1.15,2013-03-07 14:40:00,
2013-03-07 09:50:00,30.9,28.0,30.05,ENE,76,5.0,8.0,89,0.00,,,0.00,Wunderground v.1.15,2013-03-07 14:50:00,
2013-03-07 09:55:00,30.9,28.0,30.05,ENE,57,5.0,8.0,89,0.00,,,0.00,Wunderground v.1.15,2013-03-07 14:55:00,
2013-03-07 10:00:00,30.9,28.3,30.05,NE,56,5.0,8.0,90,0.00,,,0.00,Wunderground v.1.15,2013-03-07 15:00:00,
2013-03-07 10:05:00,30.8,28.2,30.05,North,355,6.0,8.0,90,0.00,,,0.00,Wunderground v.1.15,2013-03-07 15:05:00,
2013-03-07 10:10:00,30.8,28.5,30.05,NNE,29,6.0,6.0,91,0.00,,,0.01,Wunderground v.1.15,2013-03-07 15:10:00,
2013-03-07 10:15:00,30.9,28.6,30.05,NNE,28,5.0,8.0,91,0.00,,,0.01,Wunderground v.1.15,2013-03-07 15:15:00,
2013-03-07 10:25:00,31.1,28.8,30.05,East,85,4.0,5.0,91,0.00,,,0.01,Wunderground v.1.15,2013-03-07 15:25:00,
2013-03-07 10:35:00,31.1,28.8,30.05,NE,55,6.0,6.0,91,0.00,,,0.01,Wunderground v.1.15,2013-03-07 15:35:00,
2013-03-07 10:40:00,31.1,28.8,30.05,NE,41,5.0,5.0,91,0.00,,,0.01,Wunderground v.1.15,2013-03-07 15:40:00,
2013-03-07 10:45:00,31.2,28.9,30.05,NNE,30,5.0,8.0,91,0.00,,,0.01,Wunderground v.1.15,2013-03-07 15:45:00,
2013-03-07 10:50:00,31.3,29.0,30.05,NE,46,4.0,8.0,91,0.00,,,0.01,Wunderground v.1.15,2013-03-07 15:50:00,
2013-03-07 10:55:00,31.3,29.0,30.06,NE,53,5.0,8.0,91,0.00,,,0.01,Wunderground v.1.15,2013-03-07 15:55:00,
2013-03-07 11:00:00,31.3,29.0,30.06,NE,38,6.0,6.0,91,0.00,,,0.01,Wunderground v.1.15,2013-03-07 16:00:00,
2013-03-07 11:05:00,31.3,29.0,30.06,NE,49,5.0,7.0,91,0.00,,,0.01,Wunderground v.1.15,2013-03-07 16:05:00,
2013-03-07 11:15:00,31.4,29.1,30.06,NE,46,5.0,8.0,91,0.00,,,0.02,Wunderground v.1.15,2013-03-07 16:15:00,
2013-03-07 11:20:00,31.6,29.3,30.06,North,5,4.0,4.0,91,0.00,,,0.02,Wunderground v.1.15,2013-03-07 16:20:00,
2013-03-07 11:25:00,31.5,29.2,30.06,NE,45,4.0,6.0,91,0.00,,,0.02,Wunderground v.1.15,2013-03-07 16:25:00,
2013-03-07 11:30:00,31.4,29.1,30.05,NNE,29,5.0,8.0,91,0.00,,,0.02,Wunderground v.1.15,2013-03-07 16:30:00,
2013-03-07 11:40:00,31.4,29.1,30.06,NE,39,5.0,5.0,91,0.00,,,0.02,Wunderground v.1.15,2013-03-07 16:40:00,
2013-03-07 11:45:00,31.5,29.2,30.06,NNE,18,4.0,8.0,91,0.00,,,0.02,Wunderground v.1.15,2013-03-07 16:45:00,
2013-03-07 11:55:00,31.6,29.3,30.05,ENE,70,4.0,9.0,91,0.00,,,0.02,Wunderground v.1.15,2013-03-07 16:55:00,
2013-03-07 12:00:00,31.7,29.4,30.05,NE,35,4.0,4.0,91,0.00,,,0.02,Wunderground v.1.15,2013-03-07 17:00:00,
2013-03-07 12:05:00,31.7,29.4,30.05,East,80,5.0,5.0,91,0.00,,,0.03,Wunderground v.1.15,2013-03-07 17:05:00,
2013-03-07 12:10:00,31.8,29.5,30.05,NE,41,6.0,6.0,91,0.00,,,0.03,Wunderground v.1.15,2013-03-07 17:10:00,
2013-03-07 12:15:00,31.9,29.6,30.05,NE,53,6.0,8.0,91,0.00,,,0.03,Wunderground v.1.15,2013-03-07 17:15:00,
2013-03-07 12:20:00,32.0,29.7,30.05,NE,56,5.0,5.0,91,0.00,,,0.03,Wunderground v.1.15,2013-03-07 17:20:00,
2013-03-07 12:25:00,32.2,29.9,30.05,East,91,5.0,8.0,91,0.00,,,0.03,Wunderground v.1.15,2013-03-07 17:25:00,
2013-03-07 12:30:00,32.4,30.1,30.05,NE,36,5.0,5.0,91,0.00,,,0.03,Wunderground v.1.15,2013-03-07 17:30:00,
2013-03-07 12:40:00,32.6,30.3,30.04,NE,50,4.0,8.0,91,0.00,,,0.03,Wunderground v.1.15,2013-03-07 17:40:00,
2013-03-07 12:50:00,32.4,30.1,30.04,NE,46,4.0,8.0,91,0.00,,,0.03,Wunderground v.1.15,2013-03-07 17:50:00,
2013-03-07 12:55:00,32.5,30.4,30.04,ENE,73,4.0,8.0,92,0.00,,,0.03,Wunderground v.1.15,2013-03-07 17:55:00,
2013-03-07 13:00:00,32.4,30.1,30.04,NNE,22,4.0,4.0,91,0.00,,,0.03,Wunderground v.1.15,2013-03-07 18:00:00,
2013-03-07 13:05:00,32.4,30.3,30.04,North,5,4.0,8.0,92,0.00,,,0.03,Wunderground v.1.15,2013-03-07 18:05:00,
2013-03-07 13:10:00,32.5,30.4,30.04,NNE,14,2.0,2.0,92,0.00,,,0.03,Wunderground v.1.15,2013-03-07 18:10:00,
2013-03-07 13:20:00,32.5,30.4,30.04,NE,40,4.0,4.0,92,0.00,,,0.03,Wunderground v.1.15,2013-03-07 18:20:00,
2013-03-07 13:25:00,32.5,30.4,30.04,ENE,69,3.0,8.0,92,0.00,,,0.03,Wunderground v.1.15,2013-03-07 18:25:00,
2013-03-07 13:30:00,32.5,30.4,30.04,NE,36,3.0,8.0,92,0.00,,,0.03,Wunderground v.1.15,2013-03-07 18:30:00,
2013-03-07 13:35:00,32.5,30.4,30.04,East,86,3.0,8.0,92,0.00,,,0.04,Wunderground v.1.15,2013-03-07 18:35:00,
2013-03-07 13:45:00,32.6,30.8,30.04,ENE,59,3.0,8.0,93,0.00,,,0.04,Wunderground v.1.15,2013-03-07 18:45:00,
2013-03-07 13:50:00,32.5,30.4,30.04,NE,49,3.0,8.0,92,0.00,,,0.04,Wunderground v.1.15,2013-03-07 18:50:00,
2013-03-07 13:55:00,32.5,30.4,30.04,NNE,32,4.0,8.0,92,0.00,,,0.04,Wunderground v.1.15,2013-03-07 18:55:00,
2013-03-07 14:00:00,32.6,30.5,30.04,ENE,66,4.0,8.0,92,0.00,,,0.04,Wunderground v.1.15,2013-03-07 19:00:00,
2013-03-07 14:05:00,32.7,30.6,30.04,NNE,28,4.0,8.0,92,0.00,,,0.04,Wunderground v.1.15,2013-03-07 19:05:00,
2013-03-07 14:10:00,32.8,30.7,30.05,NE,34,3.0,8.0,92,0.00,,,0.04,Wunderground v.1.15,2013-03-07 19:10:00,
2013-03-07 14:15:00,32.8,30.5,30.05,NNE,17,3.0,8.0,91,0.00,,,0.04,Wunderground v.1.15,2013-03-07 19:15:00,
2013-03-07 14:25:00,32.9,30.6,30.05,NE,38,5.0,8.0,91,0.00,,,0.04,Wunderground v.1.15,2013-03-07 19:25:00,
2013-03-07 14:30:00,33.0,30.7,30.05,NNE,25,4.0,8.0,91,0.00,,,0.04,Wunderground v.1.15,2013-03-07 19:30:00,
2013-03-07 14:40:00,33.0,30.7,30.05,NE,53,4.0,8.0,91,0.00,,,0.04,Wunderground v.1.15,2013-03-07 19:40:00,
2013-03-07 14:45:00,32.9,30.6,30.05,NE,40,4.0,8.0,91,0.00,,,0.04,Wunderground v.1.15,2013-03-07 19:45:00,
2013-03-07 14:50:00,32.8,30.5,30.05,NNE,29,4.0,4.0,91,0.00,,,0.04,Wunderground v.1.15,2013-03-07 19:50:00,
2013-03-07 14:55:00,32.8,30.5,30.05,NNE,18,4.0,8.0,91,0.00,,,0.04,Wunderground v.1.15,2013-03-07 19:55:00,
2013-03-07 15:00:00,32.7,30.6,30.05,East,80,4.0,4.0,92,0.00,,,0.04,Wunderground v.1.15,2013-03-07 20:00:00,
2013-03-07 15:10:00,32.5,30.4,30.06,NE,44,4.0,8.0,92,0.00,,,0.04,Wunderground v.1.15,2013-03-07 20:10:00,
2013-03-07 15:15:00,32.4,30.3,30.06,NE,55,4.0,8.0,92,0.00,,,0.05,Wunderground v.1.15,2013-03-07 20:15:00,
2013-03-07 15:20:00,32.3,30.2,30.06,NNE,16,4.0,4.0,92,0.00,,,0.05,Wunderground v.1.15,2013-03-07 20:20:00,
2013-03-07 15:25:00,32.2,29.9,30.06,NE,50,4.0,6.0,91,0.00,,,0.05,Wunderground v.1.15,2013-03-07 20:25:00,
2013-03-07 15:30:00,32.1,29.8,30.06,NNE,17,4.0,8.0,91,0.00,,,0.05,Wunderground v.1.15,2013-03-07 20:30:00,
2013-03-07 15:35:00,32.0,29.7,30.06,NNE,17,5.0,8.0,91,0.00,,,0.05,Wunderground v.1.15,2013-03-07 20:35:00,
2013-03-07 15:40:00,31.9,29.8,30.06,NNE,27,4.0,8.0,92,0.00,,,0.05,Wunderground v.1.15,2013-03-07 20:40:00,
2013-03-07 15:45:00,31.7,29.6,30.06,NE,34,4.0,8.0,92,0.00,,,0.05,Wunderground v.1.15,2013-03-07 20:45:00,
2013-03-07 15:55:00,31.5,29.7,30.06,NNE,21,5.0,8.0,93,0.00,,,0.05,Wunderground v.1.15,2013-03-07 20:55:00,
2013-03-07 16:00:00,31.3,29.5,30.06,ENE,67,5.0,5.0,93,0.00,,,0.05,Wunderground v.1.15,2013-03-07 21:00:00,
2013-03-07 16:05:00,31.2,29.4,30.06,NNW,338,5.0,8.0,93,0.00,,,0.05,Wunderground v.1.15,2013-03-07 21:05:00,
2013-03-07 16:10:00,31.2,29.7,30.06,ENE,67,4.0,4.0,94,0.00,,,0.05,Wunderground v.1.15,2013-03-07 21:10:00,
2013-03-07 16:20:00,31.1,29.6,30.06,NE,44,3.0,8.0,94,0.00,,,0.05,Wunderground v.1.15,2013-03-07 21:20:00,
2013-03-07 16:25:00,31.0,29.5,30.06,NNE,28,3.0,8.0,94,0.00,,,0.05,Wunderground v.1.15,2013-03-07 21:25:00,
2013-03-07 16:30:00,31.0,29.5,30.07,NNE,26,3.0,3.0,94,0.00,,,0.05,Wunderground v.1.15,2013-03-07 21:30:00,
2013-03-07 16:35:00,31.0,29.5,30.07,East,81,3.0,8.0,94,0.00,,,0.05,Wunderground v.1.15,2013-03-07 21:35:00,
2013-03-07 16:40:00,30.9,29.4,30.07,NNE,28,3.0,8.0,94,0.00,,,0.05,Wunderground v.1.15,2013-03-07 21:40:00,
2013-03-07 16:45:00,30.8,29.3,30.07,North,9,3.0,8.0,94,0.00,,,0.05,Wunderground v.1.15,2013-03-07 21:45:00,
2013-03-07 16:50:00,30.7,29.2,30.07,NNW,327,4.0,4.0,94,0.00,,,0.05,Wunderground v.1.15,2013-03-07 21:50:00,
2013-03-07 17:00:00,30.7,29.2,30.07,NE,47,3.0,8.0,94,0.00,,,0.05,Wunderground v.1.15,2013-03-07 22:00:00,
2013-03-07 17:10:00,30.6,29.1,30.08,NNW,333,4.0,4.0,94,0.00,,,0.05,Wunderground v.1.15,2013-03-07 22:10:00,
2013-03-07 17:15:00,30.6,28.8,30.08,NE,55,5.0,5.0,93,0.00,,,0.05,Wunderground v.1.15,2013-03-07 22:15:00,
2013-03-07 17:20:00,30.5,28.7,30.08,East,89,5.0,8.0,93,0.00,,,0.05,Wunderground v.1.15,2013-03-07 22:20:00,
2013-03-07 17:25:00,30.4,28.9,30.08,NNW,332,5.0,8.0,94,0.00,,,0.05,Wunderground v.1.15,2013-03-07 22:25:00,
2013-03-07 17:30:00,30.3,28.8,30.08,North,349,6.0,6.0,94,0.00,,,0.05,Wunderground v.1.15,2013-03-07 22:30:00,
2013-03-07 17:35:00,30.3,28.8,30.08,ENE,63,5.0,10.0,94,0.00,,,0.05,Wunderground v.1.15,2013-03-07 22:35:00,
2013-03-07 17:45:00,30.1,28.6,30.08,NNW,338,5.0,8.0,94,0.00,,,0.05,Wunderground v.1.15,2013-03-07 22:45:00,
2013-03-07 17:50:00,30.1,28.6,30.08,NE,38,4.0,8.0,94,0.00,,,0.05,Wunderground v.1.15,2013-03-07 22:50:00,
2013-03-07 17:55:00,30.0,28.5,30.08,NNE,23,5.0,8.0,94,0.00,,,0.05,Wunderground v.1.15,2013-03-07 22:55:00,
2013-03-07 18:00:00,30.0,28.5,30.08,NE,36,5.0,8.0,94,0.00,,,0.05,Wunderground v.1.15,2013-03-07 23:00:00,
2013-03-07 18:05:00,30.0,28.5,30.08,NE,47,5.0,8.0,94,0.00,,,0.05,Wunderground v.1.15,2013-03-07 23:05:00,
2013-03-07 18:10:00,30.0,28.5,30.08,NNE,30,6.0,8.0,94,0.00,,,0.05,Wunderground v.1.15,2013-03-07 23:10:00,
2013-03-07 18:15:00,29.9,28.4,30.08,NNE,15,6.0,8.0,94,0.00,,,0.05,Wunderground v.1.15,2013-03-07 23:15:00,
2013-03-07 18:25:00,29.9,28.1,30.09,North,349,5.0,8.0,93,0.00,,,0.05,Wunderground v.1.15,2013-03-07 23:25:00,
2013-03-07 18:30:00,29.9,28.1,30.09,ENE,61,5.0,5.0,93,0.00,,,0.05,Wunderground v.1.15,2013-03-07 23:30:00,
2013-03-07 18:35:00,29.9,28.1,30.09,NE,51,5.0,8.0,93,0.00,,,0.05,Wunderground v.1.15,2013-03-07 23:35:00,
2013-03-07 18:40:00,29.9,28.1,30.09,NE,44,5.0,5.0,93,0.00,,,0.05,Wunderground v.1.15,2013-03-07 23:40:00,
2013-03-07 18:45:00,29.8,28.0,30.09,NNE,18,5.0,10.0,93,0.00,,,0.05,Wunderground v.1.15,2013-03-07 23:45:00,
2013-03-07 18:50:00,29.8,28.3,30.09,ENE,59,5.0,5.0,94,0.00,,,0.05,Wunderground v.1.15,2013-03-07 23:50:00,
2013-03-07 18:55:00,29.7,28.2,30.09,North,355,6.0,6.0,94,0.00,,,0.05,Wunderground v.1.15,2013-03-07 23:55:00,
2013-03-07 19:00:00,29.6,28.1,30.09,NNE,27,5.0,8.0,94,0.00,,,0.05,Wunderground v.1.15,2013-03-08 00:00:00,
2013-03-07 19:05:00,29.6,28.3,30.09,NE,46,4.0,8.0,95,0.00,,,0.05,Wunderground v.1.15,2013-03-08 00:05:00,
2013-03-07 19:15:00,29.6,28.3,30.09,NE,41,4.0,6.0,95,0.00,,,0.05,Wunderground v.1.15,2013-03-08 00:15:00,
2013-03-07 19:20:00,29.5,28.2,30.09,NNE,20,4.0,8.0,95,0.00,,,0.05,Wunderground v.1.15,2013-03-08 00:20:00,
2013-03-07 19:25:00,29.5,28.2,30.09,ENE,59,5.0,8.0,95,0.00,,,0.05,Wunderground v.1.15,2013-03-08 00:25:00,
2013-03-07 19:30:00,29.5,28.2,30.09,NNE,28,5.0,8.0,95,0.00,,,0.05,Wunderground v.1.15,2013-03-08 00:30:00,
2013-03-07 19:35:00,29.5,28.2,30.09,NE,46,4.0,8.0,95,0.00,,,0.05,Wunderground v.1.15,2013-03-08 00:35:00,
2013-03-07 19:40:00,29.4,28.1,30.09,North,360,3.0,3.0,95,0.00,,,0.05,Wunderground v.1.15,2013-03-08 00:40:00,
2013-03-07 19:45:00,29.4,28.1,30.09,ENE,65,3.0,8.0,95,0.00,,,0.05,Wunderground v.1.15,2013-03-08 00:45:00,
2013-03-07 19:50:00,29.4,28.1,30.09,NNE,15,4.0,4.0,95,0.00,,,0.05,Wunderground v.1.15,2013-03-08 00:50:00,
2013-03-07 20:00:00,29.4,28.4,30.09,NNE,31,3.0,3.0,96,0.00,,,0.05,Wunderground v.1.15,2013-03-08 01:00:00,
2013-03-07 20:05:00,29.4,28.4,30.09,ENE,63,3.0,4.0,96,0.00,,,0.05,Wunderground v.1.15,2013-03-08 01:05:00,
2013-03-07 20:10:00,29.4,28.4,30.09,NNE,25,3.0,8.0,96,0.00,,,0.05,Wunderground v.1.15,2013-03-08 01:10:00,
2013-03-07 20:15:00,29.4,28.4,30.09,NE,40,4.0,8.0,96,0.00,,,0.05,Wunderground v.1.15,2013-03-08 01:15:00,
2013-03-07 20:20:00,29.4,28.4,30.08,North,360,4.0,8.0,96,0.00,,,0.05,Wunderground v.1.15,2013-03-08 01:20:00,
2013-03-07 20:25:00,29.4,28.4,30.08,North,351,4.0,8.0,96,0.00,,,0.05,Wunderground v.1.15,2013-03-08 01:25:00,
2013-03-07 20:30:00,29.4,28.4,30.08,NNE,26,5.0,8.0,96,0.00,,,0.05,Wunderground v.1.15,2013-03-08 01:30:00,
2013-03-07 20:40:00,29.3,28.3,30.08,NE,34,4.0,4.0,96,0.00,,,0.05,Wunderground v.1.15,2013-03-08 01:40:00,
2013-03-07 20:45:00,29.4,28.4,30.08,NE,46,4.0,8.0,96,0.00,,,0.05,Wunderground v.1.15,2013-03-08 01:45:00,
2013-03-07 20:50:00,29.3,28.3,30.08,ENE,70,4.0,8.0,96,0.00,,,0.05,Wunderground v.1.15,2013-03-08 01:50:00,
2013-03-07 20:55:00,29.3,28.3,30.08,NE,56,4.0,8.0,96,0.00,,,0.05,Wunderground v.1.15,2013-03-08 01:55:00,
2013-03-07 21:00:00,29.3,28.3,30.08,NE,44,4.0,4.0,96,0.00,,,0.05,Wunderground v.1.15,2013-03-08 02:00:00,
2013-03-07 21:05:00,29.3,28.3,30.08,NE,34,4.0,8.0,96,0.00,,,0.05,Wunderground v.1.15,2013-03-08 02:05:00,
2013-03-07 21:15:00,29.3,28.3,30.07,NE,43,3.0,8.0,96,0.00,,,0.05,Wunderground v.1.15,2013-03-08 02:15:00,
2013-03-07 21:20:00,29.2,28.2,30.08,NE,42,3.0,8.0,96,0.00,,,0.05,Wunderground v.1.15,2013-03-08 02:20:00,
2013-03-07 21:25:00,29.2,28.2,30.08,NE,52,4.0,8.0,96,0.00,,,0.05,Wunderground v.1.15,2013-03-08 02:25:00,
2013-03-07 21:30:00,29.2,28.2,30.07,North,5,4.0,4.0,96,0.00,,,0.05,Wunderground v.1.15,2013-03-08 02:30:00,
2013-03-07 21:35:00,29.2,28.2,30.07,North,9,3.0,8.0,96,0.00,,,0.05,Wunderground v.1.15,2013-03-08 02:35:00,
2013-03-07 21:40:00,29.2,28.2,30.07,ENE,68,3.0,8.0,96,0.00,,,0.05,Wunderground v.1.15,2013-03-08 02:40:00,
2013-03-07 21:45:00,29.2,28.2,30.07,North,11,3.0,8.0,96,0.00,,,0.05,Wunderground v.1.15,2013-03-08 02:45:00,
2013-03-07 21:50:00,29.2,28.2,30.07,NE,35,3.0,3.0,96,0.00,,,0.05,Wunderground v.1.15,2013-03-08 02:50:00,
2013-03-07 22:00:00,29.2,28.2,30.07,ENE,67,2.0,8.0,96,0.00,,,0.05,Wunderground v.1.15,2013-03-08 03:00:00,
2013-03-07 22:05:00,29.2,28.2,30.06,NE,52,3.0,8.0,96,0.00,,,0.05,Wunderground v.1.15,2013-03-08 03:05:00,
2013-03-07 22:10:00,29.2,28.2,30.06,NE,34,4.0,4.0,96,0.00,,,0.05,Wunderground v.1.15,2013-03-08 03:10:00,
2013-03-07 22:15:00,29.2,28.2,30.06,NE,47,3.0,8.0,96,0.00,,,0.05,Wunderground v.1.15,2013-03-08 03:15:00,
2013-03-07 22:20:00,29.1,28.1,30.06,NE,34,3.0,3.0,96,0.00,,,0.05,Wunderground v.1.15,2013-03-08 03:20:00,
2013-03-07 22:25:00,29.1,28.1,30.06,ENE,59,3.0,8.0,96,0.00,,,0.05,Wunderground v.1.15,2013-03-08 03:25:00,
2013-03-07 22:35:00,29.0,28.0,30.06,NE,49,2.0,8.0,96,0.00,,,0.05,Wunderground v.1.15,2013-03-08 03:35:00,
2013-03-07 22:40:00,29.0,28.0,30.06,ENE,60,3.0,8.0,96,0.00,,,0.05,Wunderground v.1.15,2013-03-08 03:40:00,
2013-03-07 22:50:00,28.9,27.9,30.05,NE,49,3.0,8.0,96,0.00,,,0.05,Wunderground v.1.15,2013-03-08 03:50:00,
2013-03-07 22:55:00,28.9,27.9,30.05,NNE,27,3.0,8.0,96,0.00,,,0.05,Wunderground v.1.15,2013-03-08 03:55:00,
2013-03-07 23:00:00,28.9,27.9,30.05,NE,46,2.0,2.0,96,0.00,,,0.05,Wunderground v.1.15,2013-03-08 04:00:00,
2013-03-07 23:05:00,28.8,27.8,30.05,NE,49,2.0,8.0,96,0.00,,,0.05,Wunderground v.1.15,2013-03-08 04:05:00,
2013-03-07 23:10:00,28.8,27.8,30.05,ENE,57,3.0,3.0,96,0.00,,,0.05,Wunderground v.1.15,2013-03-08 04:10:00,
2013-03-07 23:15:00,28.8,27.8,30.05,East,80,2.0,8.0,96,0.00,,,0.05,Wunderground v.1.15,2013-03-08 04:15:00,
2013-03-07 23:20:00,28.7,27.7,30.05,NE,45,2.0,2.0,96,0.00,,,0.05,Wunderground v.1.15,2013-03-08 04:20:00,
2013-03-07 23:30:00,28.6,27.6,30.05,NE,54,2.0,8.0,96,0.00,,,0.05,Wunderground v.1.15,2013-03-08 04:30:00,
2013-03-07 23:35:00,28.5,27.5,30.05,North,355,2.0,8.0,96,0.00,,,0.05,Wunderground v.1.15,2013-03-08 04:35:00,
2013-03-07 23:40:00,28.4,27.4,30.04,NE,44,2.0,8.0,96,0.00,,,0.05,Wunderground v.1.15,2013-03-08 04:40:00,
2013-03-07 23:45:00,28.4,27.4,30.04,ENE,68,3.0,8.0,96,0.00,,,0.05,Wunderground v.1.15,2013-03-08 04:45:00,
2013-03-07 23:50:00,28.3,27.3,30.04,NW,321,4.0,8.0,96,0.00,,,0.05,Wunderground v.1.15,2013-03-08 04:50:00,
2013-03-07 23:55:00,28.2,27.2,30.04,ENE,65,3.0,10.0,96,0.00,,,0.05,Wunderground v.1.15,2013-03-08 04:55:00,